Overview Statistics Trail Chart Weather Telemetry Raw packets
 

This is the latest recevied weather packets stored in our database for station/object K1TTC. If no packets are shown the sender has not sent any weather packets the latest 10 day(s).

<< 10 11 12 13 14 15 16 >>
Time Temp. Humidity Pressure Rain* Wind** Luminosity Snow
1788456546 21.11° C 80% 1015.4 hPa 0 mm - 104 W/m² -
1788455897 21.11° C 82% 1015.2 hPa 0 mm - 179 W/m² -
1788455297 21.11° C 85% 1014.9 hPa 0 mm - 308 W/m² -
1788454742 20.56° C 86% 1015 hPa 0 mm - 279 W/m² -
1788454094 20.56° C 86% 1015 hPa 0 mm - 508 W/m² -
1788453494 20° C 86% 1015.1 hPa 0 mm - 218 W/m² -
1788452894 20° C 87% 1015.2 hPa 0 mm - 234 W/m² -
1788452295 20° C 87% 1015.1 hPa 0 mm - 195 W/m² -
1788451730 20° C 87% 1015 hPa 0 mm - 443 W/m² -
1788451092 19.44° C 86% 1015.2 hPa 0 mm - 348 W/m² -
1788450487 19.44° C 86% 1015.2 hPa 0 mm - 246 W/m² -
1788449887 19.44° C 86% 1015.5 hPa 0 mm - 190 W/m² -
1788449284 19.44° C 86% 1015.6 hPa 0 mm - 206 W/m² -
1788448684 18.89° C 85% 1015.6 hPa 0 mm - 527 W/m² -
1788448126 18.89° C 85% 1015.8 hPa 0 mm - 246 W/m² -
1788447487 18.89° C 85% 1015.7 hPa 0 mm - 172 W/m² -
1788446882 18.89° C 84% 1015.8 hPa 0 mm - 160 W/m² -
1788446283 18.33° C 84% 1015.8 hPa 0 mm - 221 W/m² -
1788445683 18.33° C 84% 1015.8 hPa 0 mm - 207 W/m² -
1788445083 18.33° C 84% 1015.9 hPa 0 mm - 160 W/m² -
1788444483 18.33° C 83% 1016.2 hPa 0 mm - 200 W/m² -
1788443884 18.33° C 83% 1016.3 hPa 0 mm - 67 W/m² -
1788443281 18.33° C 83% 1016.3 hPa 0 mm - 149 W/m² -
1788442681 18.33° C 82% 1016.3 hPa 0 mm - 107 W/m² -
1788442072 18.33° C 82% 1016.1 hPa 0 mm - 104 W/m² -

* Rain latest hour (hover to see other rain measurements)
** Current wind speed in m/s (hover to see current wind gust speed)